This is the latest recevied weather packets stored in our database for station/object N5VIS. If no packets are shown the sender has not sent any weather packets the latest 10 day(s).
| Time | Temp. | Humidity | Pressure | Rain* | Wind** | Luminosity | Snow |
|---|---|---|---|---|---|---|---|
| 1777871263 | 19.44° C | 67% | 1019.6 hPa | 0 mm | - | - | - |
| 1777870962 | 18.89° C | 67% | 1019.6 hPa | 0 mm | - | - | - |
| 1777870659 | 18.33° C | 73% | 1019.6 hPa | 0 mm | - | - | - |
| 1777870359 | 17.78° C | 77% | 1019.5 hPa | 0 mm | - | - | - |
| 1777870057 | 18.33° C | 75% | 1019.3 hPa | 0 mm | - | - | - |
| 1777869754 | 18.33° C | 72% | 1019.3 hPa | 0 mm | - | - | - |
| 1777869451 | 20° C | 69% | 1019.3 hPa | 0 mm | - | - | - |
| 1777869148 | 20° C | 65% | 1019.4 hPa | 0 mm | - | - | - |
| 1777868845 | 20° C | 68% | 1019.1 hPa | 0 mm | - | - | - |
| 1777868542 | 20° C | 68% | 1019.3 hPa | 0 mm | - | - | - |
| 1777868238 | 20° C | 67% | 1019.3 hPa | 0 mm | - | - | - |
| 1777867934 | 20° C | 66% | 1019.1 hPa | 0 mm | - | - | - |
| 1777867631 | 20° C | 66% | 1018.9 hPa | 0 mm | - | - | - |
| 1777867328 | 20° C | 65% | 1019.1 hPa | 0 mm | - | - | - |
| 1777867023 | 20° C | 64% | 1019.2 hPa | 0 mm | - | - | - |
| 1777866721 | 20.56° C | 63% | 1019.3 hPa | 0 mm | - | - | - |
| 1777866419 | 20.56° C | 62% | 1019.1 hPa | 0 mm | - | - | - |
| 1777866115 | 20.56° C | 61% | 1019.1 hPa | 0 mm | - | - | - |
| 1777865813 | 20.56° C | 61% | 1018.9 hPa | 0 mm | - | - | - |
| 1777865510 | 19.44° C | 63% | 1019.2 hPa | 0 mm | - | - | - |
| 1777865207 | 18.89° C | 66% | 1018.9 hPa | 0 mm | - | - | - |
| 1777864904 | - | - | - | 0 mm | - | - | - |
| 1777864601 | 18.33° C | 70% | 1019 hPa | 0 mm | - | - | - |
| 1777864297 | 18.33° C | 70% | 1019.2 hPa | 0 mm | - | - | - |
| 1777863994 | - | - | - | 0 mm | - | - | - |
* Rain latest hour (hover to see other rain measurements)
** Current wind speed in m/s (hover to see current wind gust speed)